ONEWEB-0339 (49205 NORAD) Tracking and Keplerian Element Data

This shows tracking and keplerian element data for the satellite.

Feedback or suggestion? Click here.




ElementValue
Catalog49205
NameONEWEB-0339
Epoch Orbit779
Epoch Day300.83334491
Epoch Year2021
RAAN312.9963
Inclination87.1984
Eccentricity0.0020796
Argument of Perigee137.8327
Mean Anonmoly124.5838
Mean Motion14.87036902
Decay Rate0.00030909
L11 49205U 21083V 21300.83334491 .00030909 00000-0 34223-2 0 9992
L22 49205 87.1984 312.9963 0020796 137.8327 124.5838 14.87036902 7791

Live tracking and technical data element details for ONEWEB-0339 (NORAD 49205). ONEWEB-0339 can be tracked NOW for your location showing map with azimuth and elevation plus other details from your city location.

Track the satellite on the map from your city or location and see movement details for azimuth, elevation, latitude, longitude, range, height, and movement on the map or in text.







IsCatalogInMostPopularTable: catalog: 49205, numindb: 21
Update: records affected: 1



GetName: 49205 ONEWEB-0339

Hit Count: updated at: Thu, 28 Oct 2021 10:48:02 GMT